• In Deutschland
  • Länderverzeichnis
  • Für 7 Tage
  • Wassertemperatur
  • Satellitenkarten
  • Wetterkarte
  • Widgets
  • user-avatar
    Anmelden

    Stündliche Wetter Mayrhofen

    Heute, 25 September, Montag

    Zeit Temperatur Niederschläge Wind Luftdruck Luftfeuchtigkeit
    00:00 +2°C° 0 mm 1 m/S 618 mmHg 92%
    01:00 +2°C° 0 mm 1 m/S 618 mmHg 91%
    02:00 +2°C° 0 mm 1 m/S 618 mmHg 90%
    03:00 +2°C° 0 mm 1 m/S 617 mmHg 89%
    04:00 +1°C° 0 mm 1 m/S 617 mmHg 88%
    05:00 +2°C° 0 mm 1 m/S 617 mmHg 85%
    06:00 +2°C° 0 mm 1 m/S 618 mmHg 83%
    07:00 +2°C° 0 mm 1 m/S 618 mmHg 81%
    08:00 +5°C° 0 mm 1 m/S 619 mmHg 73%
    09:00 +7°C° 0 mm 1 m/S 619 mmHg 65%
    10:00 +9°C° 0 mm 0 m/S 620 mmHg 57%
    11:00 +10°C° 0 mm 0 m/S 620 mmHg 55%
    12:00 +11°C° 0 mm 1 m/S 620 mmHg 53%
    13:00 +12°C° 0 mm 1 m/S 620 mmHg 51%
    14:00 +12°C° 0 mm 1 m/S 620 mmHg 54%
    15:00 +11°C° 0 mm 1 m/S 620 mmHg 56%
    16:00 +11°C° 0 mm 1 m/S 620 mmHg 58%
    17:00 +8°C° 0 mm 1 m/S 619 mmHg 67%
    18:00 +6°C° 0 mm 1 m/S 618 mmHg 76%
    19:00 +3°C° 0 mm 0 m/S 618 mmHg 85%
    20:00 +3°C° 0 mm 1 m/S 618 mmHg 86%
    21:00 +3°C° 0 mm 1 m/S 618 mmHg 86%
    22:00 +3°C° 0 mm 1 m/S 618 mmHg 86%
    23:00 +3°C° 0 mm 1 m/S 618 mmHg 86%

    Morgen, 26 September, Dienstag

    Zeit Temperatur Niederschläge Wind Luftdruck Luftfeuchtigkeit
    00:00 +3°C° 0 mm 1 m/S 618 mmHg 87%
    01:00 +3°C° 0 mm 1 m/S 618 mmHg 87%
    02:00 +2°C° 0 mm 1 m/S 618 mmHg 87%
    03:00 +2°C° 0 mm 1 m/S 618 mmHg 87%
    04:00 +2°C° 0 mm 1 m/S 618 mmHg 88%
    05:00 +2°C° 0 mm 1 m/S 618 mmHg 87%
    06:00 +3°C° 0 mm 1 m/S 618 mmHg 86%
    07:00 +3°C° 0 mm 1 m/S 619 mmHg 85%
    08:00 +6°C° 0 mm 1 m/S 620 mmHg 77%
    09:00 +8°C° 0 mm 1 m/S 620 mmHg 69%
    10:00 +11°C° 0 mm 1 m/S 621 mmHg 61%
    11:00 +11°C° 0 mm 1 m/S 621 mmHg 59%
    12:00 +12°C° 0 mm 1 m/S 622 mmHg 57%
    13:00 +12°C° 0 mm 1 m/S 622 mmHg 55%
    14:00 +12°C° 0,1 mm 1 m/S 621 mmHg 58%
    15:00 +12°C° 0,1 mm 1 m/S 621 mmHg 61%
    16:00 +11°C° 0,1 mm 1 m/S 621 mmHg 64%
    17:00 +9°C° 0 mm 1 m/S 620 mmHg 72%
    18:00 +7°C° 0 mm 1 m/S 620 mmHg 80%
    19:00 +3°C° 0 mm 0 m/S 619 mmHg 88%
    20:00 +4°C° 0 mm 1 m/S 619 mmHg 88%
    21:00 +4°C° 0 mm 1 m/S 620 mmHg 88%
    22:00 +4°C° 0 mm 1 m/S 620 mmHg 88%
    23:00 +4°C° 0 mm 1 m/S 620 mmHg 88%

    übermorgen, 27 September, Mittwoch

    Zeit Temperatur Niederschläge Wind Luftdruck Luftfeuchtigkeit
    00:00 +4°C° 0 mm 1 m/S 620 mmHg 87%
    01:00 +4°C° 0 mm 1 m/S 620 mmHg 87%
    02:00 +4°C° 0 mm 1 m/S 620 mmHg 87%
    03:00 +4°C° 0 mm 1 m/S 620 mmHg 86%
    04:00 +4°C° 0 mm 1 m/S 620 mmHg 86%
    05:00 +4°C° 0 mm 1 m/S 620 mmHg 85%
    06:00 +4°C° 0 mm 1 m/S 620 mmHg 85%
    07:00 +4°C° 0 mm 1 m/S 621 mmHg 84%
    08:00 +7°C° 0 mm 1 m/S 622 mmHg 76%
    09:00 +9°C° 0 mm 1 m/S 622 mmHg 69%
    10:00 +12°C° 0 mm 1 m/S 623 mmHg 62%
    11:00 +12°C° 0 mm 1 m/S 623 mmHg 60%
    12:00 +13°C° 0 mm 1 m/S 623 mmHg 58%
    13:00 +13°C° 0 mm 1 m/S 623 mmHg 56%
    14:00 +13°C° 0,1 mm 1 m/S 623 mmHg 59%
    15:00 +12°C° 0,1 mm 1 m/S 623 mmHg 62%
    16:00 +12°C° 0,1 mm 1 m/S 623 mmHg 65%
    17:00 +10°C° 0 mm 1 m/S 622 mmHg 73%
    18:00 +8°C° 0 mm 1 m/S 621 mmHg 81%
    19:00 +6°C° 0 mm 1 m/S 621 mmHg 89%
    20:00 +5°C° 0 mm 1 m/S 621 mmHg 89%
    21:00 +5°C° 0 mm 1 m/S 621 mmHg 89%
    22:00 +5°C° 0 mm 1 m/S 621 mmHg 89%
    23:00 +4°C° 0 mm 1 m/S 621 mmHg 89%

    28 September, Donnerstag

    Zeit Temperatur Niederschläge Wind Luftdruck Luftfeuchtigkeit
    00:00 +4°C° 0 mm 1 m/S 621 mmHg 88%
    01:00 +4°C° 0 mm 1 m/S 621 mmHg 88%
    02:00 +4°C° 0 mm 1 m/S 621 mmHg 88%
    03:00 +4°C° 0 mm 1 m/S 620 mmHg 87%
    04:00 +4°C° 0 mm 1 m/S 620 mmHg 87%
    05:00 +4°C° 0 mm 1 m/S 621 mmHg 86%
    06:00 +4°C° 0 mm 1 m/S 621 mmHg 85%
    07:00 +5°C° 0 mm 1 m/S 621 mmHg 83%
    08:00 +7°C° 0 mm 1 m/S 622 mmHg 75%
    09:00 +10°C° 0 mm 1 m/S 623 mmHg 67%
    10:00 +13°C° 0 mm 1 m/S 624 mmHg 59%
    11:00 +13°C° 0 mm 1 m/S 624 mmHg 57%
    12:00 +14°C° 0 mm 1 m/S 624 mmHg 56%
    13:00 +14°C° 0 mm 2 m/S 624 mmHg 54%
    14:00 +14°C° 0,3 mm 2 m/S 624 mmHg 60%
    15:00 +13°C° 0,3 mm 2 m/S 623 mmHg 65%
    16:00 +12°C° 0,3 mm 2 m/S 623 mmHg 71%
    17:00 +10°C° 0,3 mm 2 m/S 623 mmHg 78%
    18:00 +9°C° 0,3 mm 1 m/S 622 mmHg 85%
    19:00 +8°C° 0,3 mm 1 m/S 622 mmHg 92%
    20:00 +7°C° 0,2 mm 1 m/S 622 mmHg 93%
    21:00 +7°C° 0,2 mm 1 m/S 622 mmHg 94%
    22:00 +6°C° 0,2 mm 1 m/S 622 mmHg 94%
    23:00 +6°C° 0,1 mm 1 m/S 622 mmHg 93%

    29 September, Freitag

    Zeit Temperatur Niederschläge Wind Luftdruck Luftfeuchtigkeit
    00:00 +6°C° 0,1 mm 1 m/S 622 mmHg 92%
    01:00 +6°C° 0,1 mm 1 m/S 622 mmHg 91%
    02:00 +6°C° 0 mm 1 m/S 621 mmHg 89%
    03:00 +6°C° 0 mm 1 m/S 621 mmHg 88%
    04:00 +5°C° 0 mm 1 m/S 621 mmHg 87%
    05:00 +5°C° 0 mm 1 m/S 621 mmHg 85%
    06:00 +5°C° 0 mm 1 m/S 621 mmHg 84%
    07:00 +5°C° 0 mm 1 m/S 621 mmHg 83%
    08:00 +7°C° 0 mm 0 m/S 621 mmHg 76%
    09:00 +9°C° 0 mm 0 m/S 622 mmHg 69%
    10:00 +11°C° 0 mm 0 m/S 623 mmHg 61%
    11:00 +11°C° 0 mm 0 m/S 623 mmHg 60%
    12:00 +13°C° 0 mm 1 m/S 623 mmHg 59%
    13:00 +13°C° 0 mm 1 m/S 623 mmHg 58%
    14:00 +13°C° 0,1 mm 1 m/S 622 mmHg 61%
    15:00 +12°C° 0,1 mm 1 m/S 622 mmHg 65%
    16:00 +12°C° 0,1 mm 1 m/S 621 mmHg 69%
    17:00 +10°C° 0,1 mm 1 m/S 621 mmHg 77%
    18:00 +8°C° 0,1 mm 1 m/S 620 mmHg 85%
    19:00 +5°C° 0,1 mm 0 m/S 619 mmHg 94%
    20:00 +5°C° 0 mm 1 m/S 619 mmHg 94%
    21:00 +5°C° 0 mm 1 m/S 619 mmHg 95%
    22:00 +5°C° 0 mm 1 m/S 619 mmHg 95%
    23:00 +4°C° 0 mm 1 m/S 619 mmHg 94%

    30 September, Samstag

    Zeit Temperatur Niederschläge Wind Luftdruck Luftfeuchtigkeit
    00:00 +4°C° 0 mm 1 m/S 619 mmHg 94%
    01:00 +4°C° 0 mm 1 m/S 619 mmHg 93%
    02:00 +4°C° 0 mm 1 m/S 619 mmHg 93%
    03:00 +4°C° 0 mm 1 m/S 618 mmHg 92%
    04:00 +3°C° 0 mm 1 m/S 618 mmHg 92%
    05:00 +4°C° 0 mm 1 m/S 618 mmHg 91%
    06:00 +4°C° 0 mm 1 m/S 618 mmHg 90%
    07:00 +4°C° 0 mm 1 m/S 619 mmHg 89%
    08:00 +7°C° 0 mm 1 m/S 619 mmHg 81%
    09:00 +9°C° 0 mm 1 m/S 620 mmHg 72%
    10:00 +11°C° 0 mm 1 m/S 621 mmHg 63%
    11:00 +12°C° 0 mm 1 m/S 621 mmHg 60%
    12:00 +13°C° 0 mm 1 m/S 621 mmHg 58%
    13:00 +13°C° 0 mm 2 m/S 621 mmHg 55%
    14:00 +13°C° 0,1 mm 2 m/S 620 mmHg 58%
    15:00 +12°C° 0,1 mm 2 m/S 620 mmHg 62%
    16:00 +12°C° 0,1 mm 2 m/S 620 mmHg 65%
    17:00 +9°C° 0 mm 2 m/S 619 mmHg 75%
    18:00 +7°C° 0 mm 1 m/S 618 mmHg 84%
    19:00 +5°C° 0 mm 1 m/S 618 mmHg 94%
    20:00 +5°C° 0 mm 1 m/S 618 mmHg 95%
    21:00 +5°C° 0 mm 1 m/S 618 mmHg 96%
    22:00 +4°C° 0 mm 1 m/S 618 mmHg 96%
    23:00 +4°C° 0 mm 1 m/S 618 mmHg 96%
    Mehr zeigen